www.pogodaiklimat.ru

Погода и климат >> Архив погоды >> Австралия >> Западная Австралия >> Хоптаун


ПОГОДА в Хоптауне

  • Прогноз погоды в Хоптауне
  • Монитор погоды в Хоптауне

АРХИВ ПОГОДЫ в Хоптауне

Время (UTC), дата Ветер
(напр.,м/с)
 
Видим.   Явления Облачность Т
(С)
Тd
(С)
f
(%)
Тe
(С)
Тes
(С)
Комфортность P
(гПа)
Po
(гПа)
Тmin
(С)
Tmax
(С)
R
(мм)
R24
(мм)
S
(см)
01 14.09 ЮЗ 5 н/о н/о +22.3 +13.9 59 +25 +25 комфорт 1021.7 1018.4 +15.6
03 14.09 ЮЗ 6 н/о н/о +22.5 +14.4 60 +26 +26 жарко 1021.2 1017.9
04 14.09 Ю 6 н/о н/о +20.1 +15.9 77 +22 +22 комфорт 1021.2 1017.9
06 14.09 Ю 5 н/о н/о +19.7 +15.8 78 +22 +22 комфорт 1020.5 1017.2
07 14.09 Ю 4 н/о н/о +19.9 +16.3 80 +23 +23 комфорт 1020.3 1017.0
09 14.09 ЮВ 2 н/о н/о +18.1 +16.1 88 +19 +19 1021.1 1017.8
10 14.09 Ю 2 н/о н/о +17.4 +16.3 93 +18 +18 1021.5 1018.2
12 14.09 Ю 5 н/о н/о +16.5 +15.9 96 +16 +16 1022.8 1019.5
13 14.09 Ю 5 н/о н/о +16.4 +14.8 90 +16 +16 1023.0 1019.7 +23.8
15 14.09 ЮЗ 6 н/о н/о +14.9 +14.7 99 +13 +13 1022.9 1019.6
16 14.09 Ю 5 н/о {туман} н/о +15.2 +12.7 85 +14 +14 1022.4 1019.1
18 14.09 Ю 3 н/о н/о +15.7 +12.1 79 +15 +15 1022.4 1019.1
19 14.09 Ю 3 н/о {туман} н/о +15.7 +12.1 79 +15 +15 1022.1 1018.8
21 14.09 Ю 3 н/о н/о +13.4 +13.2 99 +12 +12 1023.6 1020.3
22 14.09 штиль 0 н/о {туман} н/о +13.7 +13.4 98 +13 +13 1024.0 1020.7
00 15.09 Ю 4 н/о н/о +14.2 +13.9 98 +13 +13 1025.2 1021.9
01 15.09 Ю 3 н/о {туман} н/о +14.7 +13.4 92 +14 +14 1025.3 1022.0 +13.2
03 15.09 ЮВ 4 н/о н/о +16.3 +11.5 73 +16 +16 1025.0 1021.7
04 15.09 ЮВ 3 н/о н/о +16.3 +10.2 67 +16 +16 1024.8 1021.5
06 15.09 ЮВ 4 н/о н/о +16.7 +9.9 64 +16 +16 1024.7 1021.4
07 15.09 ЮВ 4 н/о н/о +15.8 +9.7 67 +15 +15 1025.0 1021.7
09 15.09 ЮВ 4 н/о н/о +15.2 +8.9 66 +14 +14 1025.4 1022.1
10 15.09 ЮВ 4 н/о н/о +15.2 +8.9 66 +14 +14 1026.0 1022.7
12 15.09 ЮВ 5 н/о н/о +13.4 +10.4 82 +12 +12 1026.8 1023.5
13 15.09 В 4 н/о н/о +13.5 +11.0 85 +12 +12 1027.4 1024.1 +17.4
15 15.09 СВ 2 н/о н/о +12.6 +11.7 94 +12 +12 1027.2 1023.9
16 15.09 СВ 2 н/о н/о +12.4 +11.8 96 +12 +12 1026.9 1023.6
18 15.09 В 3 н/о н/о +12.2 +11.3 94 +11 +11 1026.1 1022.8
19 15.09 СВ 2 н/о {туман} н/о +12.2 +11.4 95 +11 +11 1025.9 1022.6
21 15.09 СВ 4 н/о н/о +11.6 +10.0 90 +9 +9 1026.1 1022.8
22 15.09 СВ 4 н/о н/о +11.7 +8.7 82 +9 +9 1026.4 1023.1
00 16.09 СВ 5 н/о н/о +13.6 +8.0 69 +12 +12 1026.9 1023.6
01 16.09 СВ 6 н/о н/о +15.6 +7.4 58 +14 +14 1026.4 1023.1 +11.5
03 16.09 В 6 н/о н/о +17.8 +6.3 47 +17 +17 1025.0 1021.7
04 16.09 СВ 7 н/о н/о +18.5 +5.4 42 +18 +18 1023.9 1020.6
06 16.09 ЮВ 9 н/о н/о +17.4 +9.6 60 +16 +16 1021.8 1018.5
07 16.09 В 8 н/о н/о +17.5 +10.1 62 +16 +16 1021.3 1018.0
09 16.09 В 8 н/о н/о +15.9 +11.1 73 +14 +14 1020.8 1017.5
10 16.09 В 7 н/о н/о +15.6 +11.2 75 +14 +14 1020.6 1017.3
12 16.09 В 3 н/о н/о +14.4 +11.7 84 +14 +14 1021.3 1018.0
13 16.09 С 1 н/о н/о +13.0 +11.1 88 +13 +13 1021.2 1017.9 +20.4
15 16.09 СВ 3 н/о н/о +11.9 +11.0 94 +10 +10 1019.9 1016.6
16 16.09 СВ 3 н/о н/о +11.2 +10.1 93 +9 +9 1019.0 1015.8
18 16.09 СВ 4 н/о н/о +9.6 +9.1 97 +7 +7 1017.3 1014.1
19 16.09 СВ 3 н/о н/о +8.6 +7.5 93 +6 +6 1016.8 1013.6
21 16.09 СВ 3 н/о н/о +8.4 +7.2 92 +6 +6 1016.4 1013.2
22 16.09 С 4 н/о н/о +11.1 +7.6 79 +9 +9 1016.1 1012.9
00 17.09 С 4 н/о н/о +17.5 +8.1 54 +17 +17 1015.9 1012.7
01 17.09 С 4 н/о н/о +21.1 +8.7 45 +22 +22 комфорт 1015.5 1012.3 +8.0
03 17.09 СЗ 4 н/о н/о +28.5 +8.2 28 +28 +28 жарко 1014.0 1010.8
04 17.09 З 4 н/о н/о +29.1 +9.3 29 +29 +29 жарко 1013.1 1009.9
06 17.09 ЮВ 4 н/о н/о +24.5 +11.5 44 +26 +26 жарко 1011.0 1007.8
07 17.09 В 5 н/о н/о +24.8 +12.7 47 +27 +27 жарко 1010.4 1007.2
09 17.09 ЮЗ 7 н/о н/о +19.1 +15.8 81 +20 +20 1012.4 1009.2
10 17.09 ЮЗ 7 н/о н/о +18.4 +14.1 76 +18 +18 1013.5 1010.3
12 17.09 ЮЗ 7 н/о н/о +17.2 +15.0 87 +16 +16 1015.7 1012.5
13 17.09 ЮЗ 5 н/о н/о +16.8 +13.7 82 +16 +16 1015.4 1012.2 +31.0
15 17.09 ЮЗ 4 н/о н/о +16.3 +13.4 83 +16 +16 1015.2 1012.0
16 17.09 ЮЗ 3 н/о н/о +15.8 +13.5 86 +15 +15 1015.1 1011.9
18 17.09 С 2 н/о н/о +13.4 +12.6 95 +13 +13 1014.2 1011.0
19 17.09 СЗ 2 н/о н/о +13.4 +12.6 95 +13 +13 1013.9 1010.7
21 17.09 С 2 н/о н/о +13.8 +12.7 93 +13 +13 1013.5 1010.3
22 17.09 С 1 н/о н/о +13.7 +12.6 93 +15 +15 1013.5 1010.3
00 18.09 СЗ 4 н/о н/о +16.3 +12.8 80 +16 +16 1013.5 1010.3
01 18.09 З 4 н/о н/о +18.1 +12.3 69 +18 +18 1013.0 1009.8 +13.4
03 18.09 СЗ 5 н/о н/о +22.0 +9.2 44 +23 +23 комфорт 1010.7 1007.5
04 18.09 СЗ 6 н/о н/о +23.0 +8.7 40 +24 +24 комфорт 1009.2 1006.0
06 18.09 СЗ 7 н/о н/о +25.2 +7.8 33 +25 +25 комфорт 1006.6 1003.4
07 18.09 СЗ 8 н/о н/о +24.4 +8.4 36 +25 +25 комфорт 1006.0 1002.8
09 18.09 СЗ 6 н/о н/о +22.4 +8.9 42 +24 +24 комфорт 1006.2 1003.0
10 18.09 СЗ 6 н/о н/о +20.9 +7.5 42 +22 +22 комфорт 1006.0 1002.8
12 18.09 СЗ 5 н/о н/о +19.7 +9.0 50 +21 +21 комфорт 1005.4 1002.2
13 18.09 СЗ 7 н/о н/о +16.9 +12.6 76 +16 +16 1005.5 1002.3 +25.7
15 18.09 ЮЗ 13 н/о н/о +13.3 +11.4 88 +10 +10 1006.4 1003.2
16 18.09 З 7 н/о {туман} н/о +12.4 +9.2 81 +9 +9 1007.0 1003.8
18 18.09 З 8 н/о н/о +11.4 +7.1 75 +8 +8 1007.8 1004.6
19 18.09 З 8 н/о {туман} н/о +10.7 +6.5 75 +7 +7 1008.4 1005.2
21 18.09 З 8 н/о н/о +9.6 +4.2 69 +6 +6 1009.1 1005.9
22 18.09 З 8 н/о н/о +8.8 +3.2 68 +5 +5 1010.2 1007.0
00 19.09 З 10 н/о н/о +10.4 +4.5 67 +6 +6 1012.3 1009.1
01 19.09 З 12 н/о н/о +10.8 +4.3 64 +7 +7 1012.9 1009.7 +8.8
03 19.09 З 7 н/о н/о +10.1 +7.0 81 +6 +6 1014.8 1011.6
04 19.09 ЮЗ 9 н/о туман местами н/о +8.8 +7.1 89 +4 +4 1015.9 1012.7
06 19.09 ЮЗ 11 н/о н/о +10.6 +4.1 64 +6 +6 1016.8 1013.6
07 19.09 ЮЗ 6 н/о туман местами н/о +8.3 +7.1 92 +4 +4 1017.8 1014.6
09 19.09 ЮЗ 9 н/о н/о +11.2 +4.4 63 +8 +8 1018.9 1015.7
10 19.09 ЮЗ 8 н/о в посл. час дождь {туман} н/о +8.8 +6.3 84 +4 +4 1020.1 1016.8
12 19.09 ЮЗ 6 н/о н/о +10.4 +3.4 62 +7 +7 1021.7 1018.4
13 19.09 ЮЗ 6 н/о в посл. час дождь {туман} н/о +8.7 +5.4 80 +5 +5 1022.3 1019.0 +20.0
15 19.09 З 3 н/о н/о +7.5 +7.2 98 +4 +4 1022.6 1019.3
16 19.09 З 4 н/о туман местами н/о +7.6 +6.9 95 +4 +4 1022.6 1019.3
18 19.09 З 5 н/о н/о +6.9 +6.5 97 +3 +3 1022.8 1019.5
19 19.09 З 4 н/о в посл. час дождь {туман} н/о +7.3 +7.0 98 +4 +4 1022.8 1019.5
21 19.09 З 5 н/о н/о +7.1 +6.7 97 +3 +3 1024.1 1020.8
22 19.09 З 3 н/о туман местами н/о +6.9 +6.6 98 +4 +4 1024.7 1021.4
00 20.09 З 4 н/о н/о +8.6 +8.2 97 +5 +5 1025.5 1022.2
01 20.09 З 4 н/о {туман} н/о +11.9 +9.8 87 +10 +10 1025.6 1022.3 +6.3
03 20.09 ЮЗ 6 н/о н/о +12.5 +8.6 77 +10 +10 1025.8 1022.5
04 20.09 ЮЗ 5 н/о {туман} н/о +13.8 +7.3 65 +12 +12 1025.5 1022.2
06 20.09 ЮЗ 5 н/о н/о +13.2 +6.5 64 +11 +11 1025.0 1021.7
07 20.09 Ю 5 н/о {туман} н/о +13.6 +7.4 66 +12 +12 1025.3 1022.0
09 20.09 Ю 5 н/о н/о +12.8 +6.4 65 +11 +11 1026.4 1023.1
10 20.09 Ю 4 н/о в посл. час дождь {туман} н/о +11.2 +6.7 74 +9 +9 1026.8 1023.5
12 20.09 Ю 5 н/о н/о +12.2 +4.9 61 +10 +10 1027.5 1024.2
13 20.09 Ю 4 н/о {туман} н/о +12.1 +6.2 67 +10 +10 1027.6 1024.3 +15.2
15 20.09 З 1 н/о н/о +10.1 +9.5 96 +10 +10 1027.5 1024.2
18 20.09 СЗ 2 н/о н/о +9.0 +8.7 98 +7 +7 1026.8 1023.5
19 20.09 З 3 н/о в посл. час дождь {туман} н/о +9.4 +9.3 99 +7 +7 1026.9 1023.6
21 20.09 З 3 н/о н/о +8.6 +8.5 99 +6 +6 1027.4 1024.1
22 20.09 СЗ 2 н/о н/о +8.6 +8.5 99 +6 +6 1027.7 1024.4
00 21.09 З 4 н/о н/о +10.4 +9.6 95 +8 +8 1028.7 1025.4

 

Местоположение метеостанции Хоптаун (Западная Австралия, Австралия): широта -33.93 долгота 120.13 высота над уровнем моря 27 м.

В архиве по умолчанию представлена погода в Хоптауне за последнюю неделю. Архивные данные за месяц целиком и за предыдущие месяцы, начиная с января 2011 года, Вы можете получить, выбрав интересующий диапазон дат из раскрывающегося списка и нажав кнопку "Ввод!".


*Определитесь, кто Вы:
робот инопланетянин человек

Внимание! Время в таблицах - всемирное. Для получения местного времени необходимо прибавить поправку, которая равна 8 ч.

Смотрите также архив погоды в соседних городах и на ближайших метеорологических станциях:

Погода в Мунглинап Запад (Западная Австралия, Австралия) (68 км)
Погода в Джакапе (Западная Австралия, Австралия) (95 км)
Погода в Ньюдегейте (Западная Австралия, Австралия) (150 км)
Погода в Эсперансе (Западная Австралия, Австралия) (160 км)
Погода в Эсперансе (Западная Австралия, Австралия) (162 км)
Погода в Салмон Гамс (Западная Австралия, Австралия) (174 км)
Погода на Озере Грейс (Западная Австралия, Австралия) (180 км)
Погода в Катаннинге (Западная Австралия, Австралия) (235 км)
Погода в Олбани (Западная Австралия, Австралия) (241 км)
Погода в Норсмане (Западная Австралия, Австралия) (243 км)

Пояснения к столбцам:

Ветер - указаны скорость ветра в м/с - средняя за 10 мин, порывы в срок и между сроками (в фигурных скобках) и направление, откуда дует ветер: С - северный, СВ - северо-восточный, В - восточный, ЮВ - юго-восточный, Ю - южный, ЮЗ - юго-западный, З - западный, СЗ - северо-западный.
Видимость - горизонтальная дальность видимости в метрах или километрах. При видимости от 1 до 10 км при отсутствии осадков обычно наблюдается дымка, при ухудшении видимости до 1 км и менее - туман. В сухую погоду видимость может ухудшаться дымом, пылью или мглою.
Явления - указаны атмосферные явления, наблюдавшиеся в срок или в последний час перед сроком; фигурными скобками обозначены явления, наблюдавшиеся между сроками (за 1-3 часа до срока); квадратными скобками обозначены град или гололедные отложения с указанием их диаметра в мм.
Облачность - указаны через наклонную черту общая и нижняя облачность в баллах и высота нижней границы облаков в метрах; квадратными скобками обозначены формы облаков: Ci - перистые, Cs - перисто-слоистые, Cc - перисто-кучевые, Ac - высококучевые, As - высокослоистые, Sc - слоисто-кучевые, Ns - слоисто-дождевые, Cu - кучевые, Cb - кучево-дождевые. Подробнее классификацию облаков см. в Атласе облаков (PDF).
T - Температура воздуха - температура, измеренная на высоте 2 м над землей.
Td - Температура точки росы - температура, при понижении до которой содержащийся в воздухе водяной пар достигнет насыщения.
f - Относительная влажность воздуха - влажноcть воздуха, измеренная на высоте 2 м над землей.
Te - Эффективная температура - температура, которую ощущает одетый по сезону человек в тени. Характеристика душности погоды. При расчете учитывается влияние влажности воздуха и скорости ветра на теплоощущения человека.
Tes - Эффективная температура на солнце - температура, которую ощущает человек, с поправкой на солнечный нагрев. Характеристика знойности погоды. Зависит от высоты солнца над горизонтом, облачности и скорости ветра. Ночью, в пасмурную погоду, а также при ветре 12 м/с и более поправка равна нулю.
P - Атмосферное давление - приведенное к уровню моря атмосферное давление.
Po - Атмосферное давление - измеренное на уровне метеостанции атмосферное давление.
Tmin - Минимальная температура - минимум температуры воздуха на высоте 2 м над землей.
Tmax - Максимальная температура - максимум температуры воздуха на высоте 2 м над землей.
R - Количество осадков - Количество выпавших осадков за период времени, мм. При наведении курсора мыши на число - период времени, за который выпало указанное количество осадков.
R24 - Количество осадков - Количество выпавших осадков за 24 часа, мм.
S - Снежный покров - Высота снежного покрова, см. При наведении курсора мыши на число - состояние снежного покрова и степень покрытия местности в баллах.